Погода на Острове Пасхи

Чили     27°07′17″S   109°21′42″W
темп.,
°C
ветер,
м/с
пор.,
м/с
влажн.,
%
обл.,
%
осадки,
мм/ч
давл.,
гПа
погр.,
м
4 марта, чт
чт401:00+24зюз568385 1.3 1013585
04:00+24юз5677100 0.1 1012715
07:00+24зюз457695 0.1 1012710
10:00+24зюз447395 0.0 1014860
13:00+24юз447793 0.1 1016694
16:00+24зюз567535 0.0 1014838
19:00+24зюз567728 0.0 1013732
22:00+24ююз667921 0.0 1014797
5 марта, пт
пт501:00+24ю678114 0.1 1015681
04:00+24ю5579100 0.0 1014645
07:00+24ююв668296 0.0 1013698
10:00+23юв778278 0.0 1015716
13:00+23юв778147 0.6 1016735
16:00+23юв788194 0.5 1015735
19:00+22вюв898798 2.9 1013621
22:00+23вюв7884100 1.8 1015625
6 марта, сб
сб601:00+23вюв7884100 4.7 1016700
04:00+22вюв788398 1.2 1013657
07:00+23вюв788099 1.6 1013737
10:00+22юв91082100 1.4 1015850
13:00+23юв91078100 3.0 10161025
16:00+21ююв121283100 2.5 1014872
19:00+20ююв111290100 4.4 1014690
22:00+21юв8988100 4.2 1015626
7 марта, вс
вс701:00+21вюв8886100 8.2 1016582
04:00+22юв6682100 0.2 1014665
07:00+22ююв6780100 0.5 1014697
10:00+22юв8981100 0.2 1015725
13:00+23юв898179 0.3 1016778
16:00+23юв787968 0.1 1015804
19:00+23юв787864 0.1 1014819
22:00+23юв677625 0.0 1016838
8 марта, пн
пн801:00+23юв887962 0.1 1017828
04:00+23юв8878100 0.1 1016821
07:00+23юв897869 0.2 1016830
10:00+23юв897637 0.0 1018975
13:00+23юв887435 0.1 10191028
16:00+23юв777488 0.0 1018988
19:00+23ююв887094 0.0 1017817
22:00+23ююв887056 0.0 1018857